����,�O�C���x,�����t���O,�O�C���x,�����t���O,�󒲎����x,�����t���O,�󒲎����x,�����t���O,��󒲎�,�����t���O,����,�����t���O
2004/5/1 0:00,20.8,0,61,0,27,0,52.8,0,24.6,0,21.7,0
2004/5/1 0:15,20.9,0,61,0,26.9,0,51.7,0,24.6,0,21.8,0
2004/5/1 0:30,20.8,0,62,0,26.8,0,51.2,0,24.6,0,21.9,0
2004/5/1 0:45,20.8,0,62,0,26.8,0,51.4,0,24.6,0,21.9,0
2004/5/1 1:00,20.8,0,63,0,26.7,0,51.9,0,24.6,0,22,0
2004/5/1 1:15,20.6,0,64,0,26.7,0,51.8,0,24.6,0,22.1,0
2004/5/1 1:30,20.4,0,66,0,26.7,0,51.7,0,24.6,0,22.2,0
2004/5/1 1:45,20.5,0,67,0,26.6,0,51.6,0,24.6,0,22.2,0
2004/5/1 2:00,20.4,0,67,0,26.5,0,51.7,0,24.6,0,22.3,0
2004/5/1 2:15,20.5,0,66,0,26.5,0,52,0,24.6,0,22.3,0
2004/5/1 2:30,20.2,0,66,0,26.4,0,52.1,0,24.6,0,22.4,0
2004/5/1 2:45,20.1,0,67,0,26.4,0,52.1,0,24.6,0,22.4,0
2004/5/1 3:00,20.1,0,68,0,26.3,0,52.2,0,24.6,0,22.5,0
2004/5/1 3:15,20.1,0,68,0,26.2,0,52.3,0,24.5,0,22.5,0
2004/5/1 3:30,20.1,0,69,0,26.2,0,52.1,0,24.5,0,22.6,0
2004/5/1 3:45,20,0,68,0,26.1,0,51.9,0,24.5,0,22.6,0
2004/5/1 4:00,20,0,69,0,26.1,0,52.1,0,24.4,0,22.7,0
2004/5/1 4:15,19.9,0,68,0,26,0,52.6,0,24.4,0,22.7,0
2004/5/1 4:30,19.6,0,69,0,26,0,52.7,0,24.3,0,22.8,0
2004/5/1 4:45,19.8,0,69,0,25.9,0,52.9,0,24.3,0,22.8,0
2004/5/1 5:00,19.6,0,71,0,25.9,0,52.8,0,24.2,0,22.9,0
2004/5/1 5:15,19.5,0,73,0,25.8,0,52.7,0,24.2,0,22.9,0
2004/5/1 5:30,19.3,0,74,0,25.8,0,53.1,0,24.2,0,23,0
2004/5/1 5:45,19,0,74,0,25.7,0,53.1,0,24.2,0,23,0
2004/5/1 6:00,18.6,0,77,0,25.7,0,53.2,0,24.2,0,23,0
2004/5/1 6:15,18.7,0,77,0,25.7,0,53.3,0,24.2,0,23.1,0
2004/5/1 6:30,19,0,76,0,25.6,0,53.3,0,24.1,0,23.1,0
2004/5/1 6:45,19.3,0,74,0,25.6,0,53.2,0,24.1,0,23.2,0
2004/5/1 7:00,19.3,0,74,0,25.6,0,53.3,0,24.1,0,23.2,0
2004/5/1 7:15,19.4,0,74,0,25.5,0,53.4,0,24,0,20.7,0
2004/5/1 7:30,19.4,0,74,0,25.6,0,53.9,0,24,0,20.7,0
2004/5/1 7:45,19.4,0,74,0,25.6,0,53.8,0,24.1,0,20.8,0
2004/5/1 8:00,20,0,74,0,25.6,0,53.8,0,24.1,0,21.2,0
2004/5/1 8:15,20.7,0,72,0,25.5,0,53.9,0,24.1,0,21.3,0
2004/5/1 8:30,22,0,69,0,25.5,0,53.8,0,24.1,0,21.4,0
2004/5/1 8:45,23.3,0,61,0,25.4,0,53.8,0,24.1,0,19.4,0
2004/5/1 9:00,24.6,0,58,0,25.3,0,53.5,0,24.1,0,19.4,0
2004/5/1 9:15,25.2,0,51,0,25.1,0,53.5,0,24.1,0,19.5,0
2004/5/1 9:30,25.4,0,49,0,25,0,54.5,0,24,0,19.6,0
2004/5/1 9:45,23.9,0,52,0,24.9,0,55.7,0,24,0,20.1,0
2004/5/1 10:00,23.7,0,54,0,24,0,58.1,0,23.9,0,20.1,0
2004/5/1 10:15,24.6,0,52,0,23.7,0,60.3,0,23.9,0,19.2,0
2004/5/1 10:30,27.8,0,45,0,22.2,0,65.1,0,23.6,0,19.1,0
2004/5/1 10:45,27.6,0,43,0,22.4,0,66.2,0,23.3,0,19.1,0
2004/5/1 11:00,29.3,0,41,0,23.1,0,63,0,23.1,0,19.6,0
2004/5/1 11:15,28.3,0,40,0,23.1,0,62.3,0,23.2,0,19.7,0
2004/5/1 11:30,26.7,0,44,0,23.2,0,62.2,0,23.4,0,19.7,0
2004/5/1 11:45,25.6,0,48,0,22.6,0,64.3,0,23.5,0,20.4,0
2004/5/1 12:00,24.9,0,50,0,22.4,0,65.9,0,23.2,0,20.4,0
2004/5/1 12:15,24.5,0,52,0,22.9,0,67.9,0,23.1,0,20.5,0
2004/5/1 12:30,24.3,0,53,0,23.2,0,63.8,0,23.1,0,20.6,0
2004/5/1 12:45,24.2,0,52,0,23.8,0,64.2,0,23.2,0,20,0
2004/5/1 13:00,24,0,54,0,24.1,0,62.6,0,23.5,0,20.1,0
2004/5/1 13:15,24.2,0,53,0,24.2,0,61.5,0,23.7,0,19.8,0
2004/5/1 13:30,24.2,0,53,0,24.4,0,60.8,0,23.8,0,19.9,0
2004/5/1 13:45,24,0,54,0,24.6,0,60,0,23.9,0,19.9,0
2004/5/1 14:00,24,0,54,0,24.7,0,59.3,0,24,0,20.7,0
2004/5/1 14:15,23.6,0,54,0,24.9,0,58.3,0,24.1,0,20.7,0
2004/5/1 14:30,23.9,0,53,0,25.1,0,57.5,0,24.1,0,20.8,0
2004/5/1 14:45,23.6,0,54,0,25.2,0,56.9,0,24.2,0,20.8,0
2004/5/1 15:00,23.5,0,55,0,25.4,0,56.4,0,24.2,0,20.9,0
2004/5/1 15:15,23.4,0,55,0,25.4,0,55.8,0,24.3,0,20.9,0
2004/5/1 15:30,23.4,0,54,0,25.4,0,55.5,0,24.5,0,21,0
2004/5/1 15:45,23.3,0,54,0,25.6,0,56.8,0,24.5,0,21.1,0
2004/5/1 16:00,23,0,55,0,25.8,0,57,0,24.6,0,21.7,0
2004/5/1 16:15,22.8,0,56,0,25.9,0,56.9,0,24.6,0,20.1,0
2004/5/1 16:30,22.6,0,56,0,25.9,0,56.7,0,24.6,0,20.1,0
2004/5/1 16:45,22.6,0,56,0,25.9,0,57.3,0,24.6,0,20.2,0
2004/5/1 17:00,22.4,0,56,0,25.9,0,56.5,0,24.6,0,20.3,0
2004/5/1 17:15,22.1,0,57,0,26,0,56.4,0,24.7,0,20.8,0
2004/5/1 17:30,22.1,0,57,0,26,0,56,0,24.7,0,20.9,0
2004/5/1 17:45,22.1,0,57,0,26.1,0,55.5,0,24.7,0,20.7,0
2004/5/1 18:00,21.9,0,56,0,26.1,0,55.4,0,24.7,0,20.8,0
2004/5/1 18:15,21.8,0,56,0,26.1,0,55.3,0,24.8,0,20.8,0
2004/5/1 18:30,21.6,0,56,0,26.2,0,55.5,0,24.8,0,20.9,0
2004/5/1 18:45,21.4,0,58,0,26.3,0,56.7,0,24.8,0,21,0
2004/5/1 19:00,21.3,0,59,0,26.4,0,57.9,0,24.8,0,19.5,0
2004/5/1 19:15,21.1,0,59,0,26.6,0,62.3,0,24.8,0,19.5,0
2004/5/1 19:30,20.9,0,60,0,27,0,66.7,0,24.9,0,19.6,0
2004/5/1 19:45,20.8,0,61,0,27.2,0,64.2,0,24.9,0,19.7,0
2004/5/1 20:00,20.6,0,62,0,27.1,0,55,0,25,0,19.7,0
2004/5/1 20:15,20.7,0,62,0,27.3,0,54,0,25,0,19.8,0
2004/5/1 20:30,20.6,0,63,0,26.8,0,52.6,0,25,0,19.9,0
2004/5/1 20:45,20.6,0,63,0,26.6,0,51.9,0,25.1,0,19.9,0
2004/5/1 21:00,20.5,0,64,0,26.4,0,51.5,0,25.2,0,20,0
2004/5/1 21:15,20.5,0,64,0,26.2,0,52.2,0,25.2,0,20.1,0
2004/5/1 21:30,20.6,0,65,0,26.2,0,52.1,0,25.1,0,20.2,0
2004/5/1 21:45,20.5,0,64,0,26.1,0,52.3,0,25.1,0,20.2,0
2004/5/1 22:00,20.5,0,65,0,26,0,52.2,0,25.1,0,18.7,0
2004/5/1 22:15,20.4,0,66,0,25.9,0,53.2,0,25.1,0,19.1,0
2004/5/1 22:30,20.5,0,66,0,25.8,0,52.8,0,25,0,18.7,0
2004/5/1 22:45,20.3,0,66,0,25.7,0,52.7,0,24.9,0,19.2,0
2004/5/1 23:00,20.2,0,67,0,25.6,0,52.7,0,24.8,0,19.3,0
2004/5/1 23:15,20,0,67,0,25.4,0,52.7,0,24.7,0,19.4,0
2004/5/1 23:30,20,0,67,0,25.3,0,53.2,0,24.6,0,19.5,0
2004/5/1 23:45,19.9,0,68,0,25.2,0,52.4,0,24.5,0,19.5,0
2004/5/2 0:00,19.7,0,69,0,25.2,0,52.8,0,24.5,0,19.6,0
2004/5/2 0:15,19.7,0,69,0,25.1,0,52.7,0,24.4,0,19.7,0
2004/5/2 0:30,19.7,0,69,0,25.1,0,53.4,0,24.4,0,20.4,0
2004/5/2 0:45,19.6,0,69,0,25.2,0,53.7,0,24.3,0,20.4,0
2004/5/2 1:00,20,0,69,0,25.2,0,53.6,0,24.3,0,20.5,0
2004/5/2 1:15,19.7,0,69,0,25.2,0,54.1,0,24.3,0,21,0
2004/5/2 1:30,19.7,0,69,0,25.2,0,54.1,0,24.3,0,21.1,0
2004/5/2 1:45,19.7,0,69,0,25.2,0,54.2,0,24.3,0,21.2,0
2004/5/2 2:00,19.5,0,70,0,25.1,0,54.4,0,24.3,0,21.3,0
2004/5/2 2:15,19.6,0,70,0,25.1,0,54.4,0,24.3,0,21.4,0
2004/5/2 2:30,19.5,0,71,0,25.1,0,54.8,0,24.3,0,21.4,0
2004/5/2 2:45,19.7,0,71,0,25.2,0,55,0,24.3,0,21.5,0
2004/5/2 3:00,19.6,0,71,0,25.2,0,55.3,0,24.3,0,21.5,0
2004/5/2 3:15,19.7,0,71,0,25.2,0,55.7,0,24.3,0,21.6,0
2004/5/2 3:30,19.7,0,71,0,25.2,0,55.6,0,24.3,0,21.1,0
2004/5/2 3:45,19.2,0,72,0,25.2,0,55.7,0,24.3,0,20.2,0
2004/5/2 4:00,19.1,0,73,0,25.2,0,55.8,0,24.2,0,20.3,0
2004/5/2 4:15,18.9,0,74,0,25.1,0,56.7,0,24.2,0,20.4,0
2004/5/2 4:30,19,0,74,0,25.1,0,56.7,0,24.2,0,20.4,0
2004/5/2 4:45,19,0,73,0,25.1,0,56.3,0,24.2,0,20.5,0
2004/5/2 5:00,19,0,73,0,25.1,0,56.7,0,24.2,0,20.6,0
2004/5/2 5:15,19.1,0,73,0,25.1,0,56.7,0,24.2,0,20.7,0
2004/5/2 5:30,18.8,0,73,0,25,0,56.8,0,24.2,0,20.8,0
2004/5/2 5:45,18.9,0,74,0,25,0,56.8,0,24.1,0,20.8,0
2004/5/2 6:00,18.9,0,74,0,25,0,56.9,0,24.1,0,20.9,0
2004/5/2 6:15,18.9,0,74,0,25,0,56.9,0,24.1,0,21,0
2004/5/2 6:30,19,0,73,0,25,0,57,0,24.1,0,21.1,0
2004/5/2 6:45,19.1,0,73,0,25,0,57.1,0,24.1,0,21.1,0
2004/5/2 7:00,19.1,0,72,0,25,0,57.3,0,24.1,0,21.2,0
2004/5/2 7:15,19.3,0,72,0,24.9,0,57.6,0,24,0,21.3,0
2004/5/2 7:30,19.3,0,72,0,24.9,0,58.3,0,24,0,19,0
2004/5/2 7:45,19.4,0,72,0,25,0,57.9,0,24,0,19.1,0
2004/5/2 8:00,19.5,0,72,0,25,0,58.2,0,24.1,0,19.2,0
2004/5/2 8:15,19.5,0,71,0,25.1,0,58.5,0,24.1,0,19.2,0
2004/5/2 8:30,19.8,0,71,0,25.1,0,56.8,0,24.2,0,19.9,0
2004/5/2 8:45,20.1,0,70,0,25,0,54.9,0,24.3,0,19.5,0
2004/5/2 9:00,20.3,0,69,0,24.9,0,55.4,0,24.4,0,19.1,0
2004/5/2 9:15,20.6,0,66,0,24.8,0,54.9,0,24.4,0,19.1,0
2004/5/2 9:30,20.8,0,64,0,24.8,0,55.3,0,24.5,0,19.2,0
2004/5/2 9:45,20.7,0,64,0,24.9,0,56,0,24.5,0,19.2,0
2004/5/2 10:00,20.6,0,63,0,24.9,0,56.3,0,24.5,0,19,0
2004/5/2 10:15,20.7,0,63,0,24.9,0,54.9,0,24.5,0,19,0
2004/5/2 10:30,21,0,64,0,24.9,0,54.9,0,24.4,0,19,0
2004/5/2 10:45,20.9,0,65,0,24.9,0,55,0,24.3,0,19.1,0
2004/5/2 11:00,21,0,63,0,24.8,0,53.6,0,24.3,0,19.7,0
2004/5/2 11:15,21.2,0,57,0,24.8,0,53,0,24.2,0,19.8,0
2004/5/2 11:30,21.4,0,52,0,24.9,0,52.3,0,24.1,0,19.8,0
2004/5/2 11:45,21.6,0,55,0,25,0,50.5,0,24.1,0,19.9,0
2004/5/2 12:00,22,0,49,0,24.8,0,48.6,0,24.2,0,20.3,0
2004/5/2 12:15,22.6,0,48,0,24.9,0,47.7,0,24.2,0,20.4,0
2004/5/2 12:30,22.6,0,45,0,24.8,0,47,0,24.2,0,19.7,0
2004/5/2 12:45,22.7,0,44,0,24.9,0,46.8,0,24.1,0,19.7,0
2004/5/2 13:00,22.8,0,42,0,25,0,50.9,0,24.1,0,19.8,0
2004/5/2 13:15,22.7,0,42,0,25.3,0,50.2,0,24.1,0,19.5,0
2004/5/2 13:30,22.5,0,45,0,25.6,0,51.7,0,24.1,0,19.6,0
2004/5/2 13:45,22.1,0,47,0,25.6,0,51.5,0,24.1,0,19.6,0
2004/5/2 14:00,22.3,0,49,0,25.5,0,50.6,0,24.2,0,19.9,0
2004/5/2 14:15,22.3,0,51,0,25.5,0,49.6,0,24.2,0,20.1,0
2004/5/2 14:30,22.4,0,51,0,25.5,0,50.4,0,24.2,0,19.5,0
2004/5/2 14:45,22.2,0,53,0,25.6,0,50.2,0,24.2,0,19.5,0
2004/5/2 15:00,22.3,0,51,0,25.6,0,50.4,0,24.2,0,19.6,0
2004/5/2 15:15,22.4,0,50,0,25.7,0,50.6,0,24.2,0,19.7,0
2004/5/2 15:30,22.6,0,50,0,25.7,0,50.8,0,24.2,0,19.7,0
2004/5/2 15:45,22.7,0,50,0,25.7,0,51.1,0,24.2,0,19.8,0
2004/5/2 16:00,22.8,0,51,0,25.7,0,51.5,0,24.3,0,19.9,0
2004/5/2 16:15,23,0,51,0,25.7,0,52,0,24.3,0,19.9,0
2004/5/2 16:30,23,0,53,0,25.7,0,52.5,0,24.3,0,20.7,0
2004/5/2 16:45,22.9,0,54,0,25.7,0,52.9,0,24.3,0,20.8,0
2004/5/2 17:00,22.8,0,57,0,25.7,0,53.1,0,24.3,0,20.8,0
2004/5/2 17:15,22.6,0,59,0,25.7,0,53.2,0,24.3,0,20.9,0
2004/5/2 17:30,22.6,0,59,0,25.7,0,53.4,0,24.3,0,21,0
2004/5/2 17:45,22.4,0,60,0,25.7,0,53.2,0,24.4,0,21,0
2004/5/2 18:00,22.5,0,61,0,25.7,0,53.4,0,24.5,0,21.6,0
2004/5/2 18:15,22.5,0,59,0,25.9,0,54,0,24.5,0,21.7,0
2004/5/2 18:30,22.4,0,58,0,26,0,54.1,0,24.6,0,21.8,0
2004/5/2 18:45,22.5,0,58,0,26,0,54.6,0,24.6,0,21.8,0
2004/5/2 19:00,22.4,0,59,0,26.2,0,54.9,0,24.6,0,21.6,0
2004/5/2 19:15,22.5,0,59,0,26.3,0,56,0,24.6,0,21.7,0
2004/5/2 19:30,22.4,0,59,0,26.3,0,54.8,0,24.6,0,20.3,0
2004/5/2 19:45,22.4,0,60,0,26.4,0,56.2,0,24.6,0,20.3,0
2004/5/2 20:00,22.3,0,60,0,26.4,0,54.8,0,24.6,0,20.4,0
2004/5/2 20:15,22.4,0,60,0,26.5,0,54.5,0,24.6,0,20.5,0
2004/5/2 20:30,22.5,0,60,0,26.5,0,54,0,24.6,0,20.6,0
2004/5/2 20:45,22.4,0,60,0,26.6,0,54.1,0,24.6,0,20.7,0
2004/5/2 21:00,22.4,0,59,0,26.6,0,54.9,0,24.6,0,20.8,0
2004/5/2 21:15,22.2,0,64,0,26.6,0,54.8,0,24.6,0,20.8,0
2004/5/2 21:30,21.8,0,69,0,26.5,0,54.6,0,24.6,0,20.9,0
2004/5/2 21:45,21.6,0,71,0,26.4,0,54.6,0,24.5,0,21,0
2004/5/2 22:00,21.7,0,68,0,26.5,0,55.6,0,24.5,0,20.9,0
2004/5/2 22:15,21.9,0,66,0,26.6,0,55.5,0,24.5,0,21,0
2004/5/2 22:30,21.9,0,66,0,26.6,0,55.7,0,24.5,0,21.1,0
2004/5/2 22:45,21.9,0,65,0,26.7,0,55.9,0,24.5,0,21.1,0
2004/5/2 23:00,22,0,65,0,26.7,0,56.7,0,24.4,0,21.2,0
2004/5/2 23:15,22.1,0,64,0,26.7,0,55,0,24.4,0,20.9,0
2004/5/2 23:30,22,0,63,0,26.6,0,54.3,0,24.4,0,20.9,0
2004/5/2 23:45,22,0,64,0,26.5,0,54.5,0,24.5,0,21,0
2004/5/3 0:00,21.8,0,67,0,26.4,0,54.6,0,24.4,0,21.1,0
2004/5/3 0:15,21.7,0,66,0,26.4,0,54.5,0,24.4,0,21.1,0
2004/5/3 0:30,21.2,0,71,0,26.3,0,55.1,0,24.4,0,21.2,0
2004/5/3 0:45,20.8,0,74,0,26.2,0,54.7,0,24.4,0,21.3,0
2004/5/3 1:00,20.8,0,73,0,26.2,0,55,0,24.4,0,21.4,0
2004/5/3 1:15,21.2,0,70,0,26.1,0,54.8,0,24.4,0,21.4,0
2004/5/3 1:30,21.4,0,68,0,26.1,0,54.9,0,24.4,0,21.5,0
2004/5/3 1:45,21.5,0,67,0,26.1,0,55,0,24.3,0,21.6,0
2004/5/3 2:00,21.1,0,70,0,26,0,54.8,0,24.3,0,21.6,0
2004/5/3 2:15,20,0,78,0,25.9,0,54.6,0,24.3,0,21,0
2004/5/3 2:30,20.5,0,76,0,25.8,0,54.5,0,24.3,0,21,0
2004/5/3 2:45,20.9,0,72,0,25.8,0,55.1,0,24.3,0,21.1,0
2004/5/3 3:00,21,0,69,0,25.8,0,55.1,0,24.3,0,21.2,0
2004/5/3 3:15,21.2,0,68,0,25.7,0,55.6,0,24.3,0,21.2,0
2004/5/3 3:30,21.1,0,68,0,25.7,0,55.8,0,24.3,0,21.3,0
2004/5/3 3:45,21,0,68,0,25.7,0,56.1,0,24.3,0,21.4,0
2004/5/3 4:00,21,0,68,0,25.6,0,56.4,0,24.3,0,21.4,0
2004/5/3 4:15,20.9,0,69,0,25.6,0,56.4,0,24.3,0,21.5,0
2004/5/3 4:30,20.8,0,71,0,25.6,0,56.3,0,24.3,0,21.6,0
2004/5/3 4:45,20.7,0,71,0,25.6,0,56.3,0,24.2,0,21.6,0
2004/5/3 5:00,20.8,0,68,0,25.5,0,56.5,0,24.2,0,21.7,0
2004/5/3 5:15,20.7,0,70,0,25.5,0,56.8,0,24.2,0,21.8,0
2004/5/3 5:30,20.6,0,71,0,25.5,0,56.7,0,24.2,0,21.8,0
2004/5/3 5:45,20.8,0,70,0,25.5,0,56.7,0,24.2,0,21.9,0
2004/5/3 6:00,20.9,0,69,0,25.5,0,56.8,0,24.2,0,22,0
2004/5/3 6:15,20.9,0,69,0,25.5,0,56.8,0,24.2,0,22,0
2004/5/3 6:30,20.9,0,68,0,25.4,0,57,0,24.1,0,22.1,0
2004/5/3 6:45,20.7,0,71,0,25.4,0,57,0,24.1,0,22.1,0
2004/5/3 7:00,20.4,0,74,0,25.4,0,57,0,24.1,0,22.2,0
2004/5/3 7:15,20,0,77,0,25.4,0,57,0,24.1,0,22.3,0
2004/5/3 7:30,19.8,0,81,0,25.4,0,57.1,0,24.1,0,22.3,0
2004/5/3 7:45,20.2,0,78,0,25.4,0,57,0,24.1,0,22.4,0
2004/5/3 8:00,20.5,0,76,0,25.4,0,57.2,0,24.1,0,22.4,0
2004/5/3 8:15,20.7,0,74,0,25.4,0,57.3,0,24.1,0,22.5,0
2004/5/3 8:30,20.7,0,74,0,25.4,0,57.2,0,24.1,0,22.5,0
2004/5/3 8:45,21.8,0,70,0,25.4,0,57.3,0,24.1,0,22.6,0
2004/5/3 9:00,21.8,0,68,0,25.4,0,57.5,0,24.1,0,22.8,0
2004/5/3 9:15,21.9,0,68,0,25.4,0,57.7,0,24.1,0,22.8,0
2004/5/3 9:30,22.4,0,66,0,25.4,0,57.5,0,24.1,0,22.9,0
2004/5/3 9:45,22.2,0,67,0,25.3,0,57.6,0,24.1,0,22.9,0
2004/5/3 10:00,21.2,0,75,0,25.3,0,57.7,0,24.1,0,22.9,0
2004/5/3 10:15,20.1,0,85,0,25.4,0,57.7,0,24.1,0,23,0
2004/5/3 10:30,20.2,0,84,0,25.3,0,58.3,0,24.1,0,23,0
2004/5/3 10:45,20.3,0,85,0,25.5,0,61.3,0,24.1,0,21.2,0
2004/5/3 11:00,20.7,0,85,0,25.6,0,60.5,0,24.2,0,21.2,0
2004/5/3 11:15,21,0,81,0,25.7,0,60.1,0,24.2,0,21.3,0
2004/5/3 11:30,20.9,0,81,0,25.7,0,59.7,0,24.2,0,20.2,0
2004/5/3 11:45,20.7,0,84,0,25.7,0,59.6,0,24.2,0,20.3,0
2004/5/3 12:00,20.5,0,85,0,25.8,0,59.3,0,24.2,0,20.4,0
2004/5/3 12:15,20.2,0,88,0,25.7,0,59.6,0,24.2,0,19.5,0
2004/5/3 12:30,20.3,0,90,0,25.8,0,59.6,0,24.2,0,19.6,0
2004/5/3 12:45,20.4,0,90,0,25.8,0,59.2,0,24.3,0,19.6,0
2004/5/3 13:00,20.5,0,91,0,25.8,0,58.7,0,24.2,0,19.7,0
2004/5/3 13:15,20.6,0,91,0,25.8,0,58.5,0,24.2,0,19.8,0
2004/5/3 13:30,20.6,0,90,0,25.7,0,58.4,0,24.2,0,19.9,0
2004/5/3 13:45,20.6,0,90,0,25.7,0,58.5,0,24.2,0,19.9,0
2004/5/3 14:00,20.4,0,91,0,25.7,0,58.4,0,24.2,0,20,0
2004/5/3 14:15,20.4,0,93,0,25.7,0,58.4,0,24.1,0,20.1,0
2004/5/3 14:30,20.5,0,92,0,25.6,0,58.7,0,24.1,0,20.2,0
2004/5/3 14:45,20.6,0,92,0,25.6,0,59.2,0,24.1,0,20.3,0
2004/5/3 15:00,20.5,0,92,0,25.6,0,59,0,24.1,0,20.4,0
2004/5/3 15:15,20.3,0,94,0,25.6,0,59.2,0,24.1,0,20.5,0
2004/5/3 15:30,20.2,0,96,0,25.6,0,59.4,0,24.1,0,20.6,0
2004/5/3 15:45,20.1,0,98,0,25.6,0,59.3,0,24.1,0,20.7,0
2004/5/3 16:00,20.1,0,99,0,25.6,0,60.5,0,24.1,0,21.6,0
2004/5/3 16:15,20.1,0,99,0,25.6,0,60.9,0,24.1,0,21.6,0
2004/5/3 16:30,20.1,0,99,0,25.6,0,62.3,0,24.1,0,21.7,0
2004/5/3 16:45,20.1,0,99,0,25.7,0,61.9,0,24.1,0,21.8,0
2004/5/3 17:00,20.1,0,99,0,25.7,0,61.8,0,24.2,0,21.8,0
2004/5/3 17:15,20.2,0,99,0,25.7,0,62.8,0,24.2,0,21.9,0
2004/5/3 17:30,20.2,0,99,0,25.7,0,63.1,0,24.2,0,21,0
2004/5/3 17:45,20.5,0,99,0,25.8,0,62.9,0,24.2,0,21.2,0
2004/5/3 18:00,20.7,0,99,0,25.8,0,62.1,0,24.2,0,20.1,0
2004/5/3 18:15,20.6,0,99,0,25.8,0,61.6,0,24.2,0,20.1,0
2004/5/3 18:30,20.7,0,99,0,25.9,0,61.7,0,24.3,0,20.2,0
2004/5/3 18:45,20.9,0,99,0,25.9,0,61.9,0,24.3,0,20.7,0
2004/5/3 19:00,21.1,0,99,0,25.9,0,62.2,0,24.3,0,20.7,0
2004/5/3 19:15,21.3,0,99,0,25.9,0,65,0,24.4,0,20.8,0
2004/5/3 19:30,21.4,0,99,0,25.9,0,65.3,0,24.4,0,20.9,0
2004/5/3 19:45,21.7,0,99,0,26,0,65.3,0,24.3,0,21,0
2004/5/3 20:00,21.7,0,98,0,26,0,67.7,0,24.3,0,21,0
2004/5/3 20:15,21.7,0,97,0,26.1,0,65.6,0,24.3,0,21.1,0
2004/5/3 20:30,21.8,0,96,0,26.1,0,65,0,24.3,0,21.2,0
2004/5/3 20:45,21.9,0,95,0,26.2,0,66.5,0,24.3,0,21.3,0
2004/5/3 21:00,21.9,0,94,0,26.4,0,65.9,0,24.4,0,21.3,0
2004/5/3 21:15,22,0,93,0,26.5,0,65.1,0,24.4,0,22,0
2004/5/3 21:30,22.1,0,93,0,26.6,0,64.4,0,24.4,0,22,0
2004/5/3 21:45,22.2,0,94,0,26.7,0,63.5,0,24.5,0,22.1,0
2004/5/3 22:00,22.2,0,94,0,26.8,0,62.9,0,24.5,0,22.1,0
2004/5/3 22:15,22.1,0,95,0,26.8,0,62.4,0,24.5,0,22.2,0
2004/5/3 22:30,22,0,96,0,26.8,0,62.3,0,24.5,0,22.2,0
2004/5/3 22:45,21.6,0,96,0,26.8,0,61.8,0,24.5,0,22.3,0
2004/5/3 23:00,21.5,0,98,0,26.9,0,62.4,0,24.5,0,22.3,0
2004/5/3 23:15,21.5,0,98,0,26.9,0,62.2,0,24.5,0,22.6,0
2004/5/3 23:30,21.5,0,99,0,26.9,0,62.2,0,24.5,0,22.6,0
2004/5/3 23:45,21.5,0,99,0,26.9,0,62.3,0,24.5,0,22.4,0
2004/5/4 0:00,21.4,0,99,0,26.9,0,61.8,0,24.6,0,22,0
2004/5/4 0:15,21.4,0,99,0,26.8,0,61.7,0,24.6,0,22.1,0
2004/5/4 0:30,21.4,0,99,0,26.8,0,61.9,0,24.6,0,22.3,0
2004/5/4 0:45,21.4,0,99,0,26.6,0,62.1,0,24.6,0,22.4,0
2004/5/4 1:00,21.4,0,99,0,26.6,0,62.2,0,24.6,0,22.4,0
2004/5/4 1:15,21.5,0,99,0,26.5,0,62.5,0,24.5,0,22.5,0
2004/5/4 1:30,21.6,0,99,0,26.4,0,62.8,0,24.5,0,22.6,0
2004/5/4 1:45,21.6,0,99,0,26.4,0,62.7,0,24.5,0,22.7,0
2004/5/4 2:00,21.8,0,99,0,26.4,0,62.8,0,24.5,0,22.7,0
2004/5/4 2:15,21.8,0,99,0,26.3,0,62.9,0,24.5,0,22.7,0
2004/5/4 2:30,22.1,0,99,0,26.3,0,63.2,0,24.5,0,22.8,0
2004/5/4 2:45,22.1,0,99,0,26.2,0,63.4,0,24.5,0,22.8,0
2004/5/4 3:00,22.2,0,99,0,26.2,0,63.9,0,24.5,0,22.9,0
2004/5/4 3:15,22.2,0,99,0,26.2,0,64.5,0,24.5,0,22.9,0
2004/5/4 3:30,22,0,99,0,26.1,0,64.5,0,24.4,0,23,0
2004/5/4 3:45,22,0,99,0,26,0,64.4,0,24.4,0,23,0
2004/5/4 4:00,22,0,99,0,26,0,64.2,0,24.4,0,23.1,0
2004/5/4 4:15,21.7,0,99,0,25.9,0,63.6,0,24.4,0,23.1,0
2004/5/4 4:30,21.2,0,99,0,25.9,0,63.4,0,24.4,0,23.2,0
2004/5/4 4:45,20.7,0,99,0,25.8,0,63.1,0,24.4,0,23.2,0
2004/5/4 5:00,20.3,0,99,0,25.8,0,62.8,0,24.4,0,23.3,0
2004/5/4 5:15,20,0,99,0,25.7,0,62.2,0,24.3,0,23.3,0
2004/5/4 5:30,20,0,99,0,25.7,0,61.9,0,24.3,0,23.3,0
2004/5/4 5:45,19.9,0,99,0,25.6,0,61.7,0,24.3,0,23.4,0
2004/5/4 6:00,19.8,0,99,0,25.5,0,61.6,0,24.2,0,23.4,0
2004/5/4 6:15,19.6,0,99,0,25.5,0,61.9,0,24.2,0,23.5,0
2004/5/4 6:30,19.5,0,99,0,25.4,0,61.4,0,24.2,0,23.5,0
2004/5/4 6:45,19.4,0,99,0,25.4,0,61.4,0,24.1,0,23.5,0
2004/5/4 7:00,19.4,0,99,0,25.3,0,61.3,0,24.1,0,23.6,0
2004/5/4 7:15,19.4,0,99,0,25.2,0,60.9,0,24.1,0,23.6,0
2004/5/4 7:30,19.3,0,99,0,25.1,0,61.1,0,24,0,23.7,0
2004/5/4 7:45,19.3,0,99,0,25.1,0,61,0,24,0,23.9,0
2004/5/4 8:00,19.1,0,98,0,25.2,0,60.6,0,24,0,23.9,0
2004/5/4 8:15,19,0,98,0,25.2,0,60.2,0,24,0,23.9,0
2004/5/4 8:30,19,0,98,0,25.2,0,59.4,0,23.9,0,23.9,0
2004/5/4 8:45,18.9,0,98,0,25.2,0,58.8,0,23.9,0,23.5,0
2004/5/4 9:00,18.9,0,98,0,25.1,0,58.5,0,23.9,0,19.6,0
2004/5/4 9:15,18.8,0,96,0,25.1,0,58.9,0,23.8,0,19.7,0
2004/5/4 9:30,18.9,0,94,0,25.3,0,60.3,0,23.8,0,19.8,0
2004/5/4 9:45,18.8,0,94,0,25.4,0,59.7,0,23.8,0,19.9,0
2004/5/4 10:00,19,0,93,0,25.5,0,59.1,0,23.8,0,19.9,0
2004/5/4 10:15,18.9,0,93,0,25.5,0,58.2,0,23.9,0,20,0
2004/5/4 10:30,18.9,0,92,0,25.5,0,57.7,0,24,0,20.1,0
2004/5/4 10:45,18.8,0,91,0,25.4,0,58.1,0,24,0,20.1,0
2004/5/4 11:00,18.3,0,89,0,25.3,0,55.9,0,24,0,20.2,0
2004/5/4 11:15,18.3,0,88,0,25.3,0,57.4,0,24,0,19.5,0
2004/5/4 11:30,18.3,0,88,0,25.3,0,57.3,0,24,0,19.6,0
2004/5/4 11:45,18.1,0,88,0,25.3,0,58.2,0,24.1,0,19.6,0
2004/5/4 12:00,18,0,88,0,25.4,0,57.7,0,24.3,0,19.7,0
2004/5/4 12:15,17.9,0,87,0,25.4,0,57.2,0,24.5,0,20.2,0
2004/5/4 12:30,18,0,85,0,25.3,0,58.9,0,24.6,0,20.3,0
2004/5/4 12:45,18.1,0,85,0,25.5,0,64.4,0,24.6,0,20.4,0
2004/5/4 13:00,18.4,0,84,0,25.5,0,61.1,0,24.6,0,19.2,0
2004/5/4 13:15,18.5,0,79,0,25.5,0,59.6,0,24.6,0,19.3,0
2004/5/4 13:30,18.8,0,80,0,25.5,0,57.3,0,24.6,0,19.4,0
2004/5/4 13:45,19,0,80,0,25.4,0,55.3,0,24.6,0,19.9,0
2004/5/4 14:00,19.3,0,77,0,25.5,0,55.6,0,24.6,0,20,0
2004/5/4 14:15,19,0,72,0,25.4,0,55.3,0,24.5,0,20.1,0
2004/5/4 14:30,18.9,0,71,0,25.4,0,55.2,0,24.4,0,20.6,0
2004/5/4 14:45,18.7,0,71,0,25.4,0,55.3,0,24.4,0,20.6,0
2004/5/4 15:00,18.9,0,69,0,25.4,0,53.6,0,24.4,0,20.7,0
2004/5/4 15:15,19.2,0,69,0,25.4,0,52.8,0,24.3,0,20.1,0
2004/5/4 15:30,19.6,0,67,0,25.3,0,52.9,0,24.3,0,19.8,0
2004/5/4 15:45,19.5,0,64,0,25.3,0,53.4,0,24.2,0,19.8,0
2004/5/4 16:00,19.5,0,61,0,24.9,0,48.3,0,24.2,0,20.3,0
2004/5/4 16:15,19.5,0,64,0,24.7,0,47.7,0,24.1,0,20.3,0
2004/5/4 16:30,19.6,0,64,0,24.8,0,49.3,0,23.9,0,20.4,0
2004/5/4 16:45,19.5,0,62,0,25,0,51.1,0,23.9,0,20.9,0
2004/5/4 17:00,19.5,0,59,0,24.9,0,47.3,0,24,0,21,0
2004/5/4 17:15,19.5,0,60,0,24.9,0,46.6,0,23.9,0,20.2,0
2004/5/4 17:30,19.4,0,62,0,23.3,0,51.3,0,23.9,0,20.2,0
2004/5/4 17:45,19.7,0,62,0,24.1,0,55.7,0,23.9,0,20.2,0
2004/5/4 18:00,19.7,0,63,0,24.2,0,55.7,0,23.9,0,20.3,0
2004/5/4 18:15,19.4,0,62,0,24.4,0,54.6,0,23.8,0,20.4,0
2004/5/4 18:30,19.3,0,63,0,24.6,0,54.1,0,23.8,0,20.4,0
2004/5/4 18:45,19.1,0,64,0,24.7,0,53.8,0,23.8,0,19.9,0
2004/5/4 19:00,19,0,63,0,24.8,0,53.9,0,23.8,0,20,0
2004/5/4 19:15,19,0,64,0,24.8,0,53.8,0,23.8,0,20,0
2004/5/4 19:30,18.8,0,63,0,24.8,0,53.2,0,23.9,0,20.1,0
2004/5/4 19:45,18.7,0,65,0,24.9,0,53.4,0,23.9,0,20.1,0
2004/5/4 20:00,18.6,0,65,0,24.9,0,54.9,0,23.8,0,20.2,0
2004/5/4 20:15,18.7,0,65,0,24.9,0,55.6,0,23.8,0,19.8,0
2004/5/4 20:30,18.5,0,65,0,24.9,0,56,0,23.8,0,20,0
2004/5/4 20:45,18.3,0,65,0,25.1,0,55,0,23.8,0,20,0
2004/5/4 21:00,18.4,0,66,0,25.2,0,55.1,0,23.9,0,20,0
2004/5/4 21:15,18.5,0,66,0,25.1,0,54.9,0,24,0,20.1,0
2004/5/4 21:30,18.5,0,67,0,25.1,0,55.3,0,24,0,20.2,0
2004/5/4 21:45,18.4,0,67,0,25.2,0,54.5,0,24,0,20.2,0
2004/5/4 22:00,18.5,0,68,0,25.2,0,54.8,0,23.9,0,20.3,0
2004/5/4 22:15,18.5,0,68,0,25.3,0,55,0,23.9,0,20.4,0
2004/5/4 22:30,18.5,0,68,0,25.3,0,54.9,0,23.8,0,20.5,0
2004/5/4 22:45,18.4,0,67,0,25.3,0,55.2,0,23.8,0,20.5,0
2004/5/4 23:00,18.3,0,66,0,25.3,0,55.6,0,23.7,0,20.6,0
2004/5/4 23:15,18.3,0,66,0,25.1,0,55.3,0,23.7,0,20.7,0
2004/5/4 23:30,18.3,0,67,0,25.1,0,55.8,0,23.7,0,21,0
2004/5/4 23:45,18.2,0,68,0,25,0,55.7,0,23.7,0,20.9,0
2004/5/5 0:00,18,0,68,0,24.9,0,55.9,0,23.7,0,21,0
2004/5/5 0:15,18,0,69,0,24.9,0,55.9,0,23.6,0,21,0
2004/5/5 0:30,18,0,69,0,24.8,0,56.1,0,23.6,0,21.1,0
2004/5/5 0:45,18.1,0,69,0,24.8,0,56.3,0,23.6,0,21.2,0
2004/5/5 1:00,18,0,70,0,24.7,0,56.5,0,23.6,0,21.2,0
2004/5/5 1:15,18,0,70,0,24.7,0,56.5,0,23.5,0,21.3,0
2004/5/5 1:30,17.8,0,71,0,24.6,0,56.6,0,23.5,0,21.3,0
2004/5/5 1:45,17.6,0,72,0,24.6,0,56.7,0,23.5,0,21.4,0
2004/5/5 2:00,17.7,0,72,0,24.5,0,57,0,23.4,0,21.4,0
2004/5/5 2:15,17.8,0,72,0,24.5,0,57.1,0,23.4,0,21.5,0
2004/5/5 2:30,17.6,0,72,0,24.5,0,57.1,0,23.4,0,21.5,0
2004/5/5 2:45,17.4,0,73,0,24.4,0,57.2,0,23.4,0,21.6,0
2004/5/5 3:00,17.4,0,73,0,24.4,0,57.3,0,23.3,0,21.7,0
2004/5/5 3:15,17.3,0,73,0,24.3,0,57.4,0,23.3,0,21.7,0
2004/5/5 3:30,17.2,0,73,0,24.3,0,57.6,0,23.3,0,21.8,0
2004/5/5 3:45,17.1,0,73,0,24.2,0,57.9,0,23.3,0,21.8,0
2004/5/5 4:00,17.1,0,73,0,24.2,0,58,0,23.2,0,21.9,0
2004/5/5 4:15,17.1,0,73,0,24.2,0,58.1,0,23.2,0,21.9,0
2004/5/5 4:30,16.8,0,73,0,24.1,0,58.5,0,23.2,0,22.1,0
2004/5/5 4:45,16.6,0,73,0,24.1,0,58.3,0,23.1,0,22.2,0
2004/5/5 5:00,16.6,0,74,0,24.1,0,58.4,0,23.1,0,22.2,0
2004/5/5 5:15,16.4,0,74,0,24,0,58.5,0,23.1,0,22.2,0
2004/5/5 5:30,16.3,0,75,0,24,0,58.7,0,23,0,22.3,0
2004/5/5 5:45,16.1,0,75,0,23.9,0,58.7,0,23,0,22.3,0
2004/5/5 6:00,16,0,76,0,23.9,0,58.7,0,23,0,22.3,0
2004/5/5 6:15,15.9,0,75,0,23.9,0,58.7,0,23,0,22.4,0
2004/5/5 6:30,15.7,0,75,0,23.9,0,58.9,0,23,0,22.4,0
2004/5/5 6:45,15.7,0,75,0,23.9,0,59.2,0,23,0,22.5,0
2004/5/5 7:00,15.9,0,73,0,23.8,0,59.4,0,23,0,22.5,0
2004/5/5 7:15,16.2,0,72,0,23.8,0,59.6,0,23,0,22.5,0
2004/5/5 7:30,16.7,0,71,0,23.8,0,59.9,0,23.1,0,22.6,0
2004/5/5 7:45,17.6,0,69,0,23.8,0,60.1,0,23.1,0,22.6,0
2004/5/5 8:00,17.7,0,68,0,23.8,0,60.5,0,23.2,0,22.8,0
2004/5/5 8:15,18.9,0,65,0,24,0,60.3,0,23.2,0,22.8,0
2004/5/5 8:30,20.5,0,60,0,24.1,0,60.1,0,23.2,0,22.8,0
2004/5/5 8:45,22.5,0,54,0,24,0,57.3,0,23.3,0,22.8,0
2004/5/5 9:00,24.4,0,46,0,24,0,54.8,0,23.3,0,22.9,0
2004/5/5 9:15,27.8,0,37,0,23.9,0,53.6,0,23.2,0,19.5,0
2004/5/5 9:30,29.8,0,30,0,23.8,0,51.7,0,23.2,0,19.3,0
2004/5/5 9:45,32.2,0,25,0,23.7,0,51.3,0,23.2,0,19.4,0
2004/5/5 10:00,32.8,0,23,0,23.7,0,52.7,0,23.1,0,19.4,0
2004/5/5 10:15,33.6,0,22,0,23.6,0,51.9,0,23.1,0,19.5,0
2004/5/5 10:30,31.8,0,23,0,23.5,0,50.8,0,23.1,0,19.6,0
2004/5/5 10:45,30,0,26,0,23.5,0,52.1,0,23.1,0,19.6,0
2004/5/5 11:00,29.9,0,27,0,23.6,0,52.7,0,23,0,20.7,0
2004/5/5 11:15,27.7,0,29,0,23.7,0,53,0,23,0,20.8,0
2004/5/5 11:30,26.2,0,32,0,23.7,0,52.9,0,23,0,20.8,0
2004/5/5 11:45,25.5,0,34,0,23.8,0,53.1,0,23.1,0,20.9,0
2004/5/5 12:00,25.4,0,34,0,23.8,0,52.7,0,23.1,0,20.9,0
2004/5/5 12:15,25.5,0,32,0,23.9,0,52.3,0,23.1,0,21,0
2004/5/5 12:30,25.3,0,32,0,23.9,0,51.9,0,23.1,0,21,0
2004/5/5 12:45,24.7,0,31,0,23.9,0,50.7,0,23.2,0,21.1,0
2004/5/5 13:00,24.1,0,31,0,24,0,51,0,23.2,0,21.1,0